Custer, SD

3:17 AM MST on February 23, 2017 (GMT -0700)
Custer County

Weather History for KCUT - October, 2013

Change the Weather History Date:

Monday, October 14, 2013

  Actual Average Record
Temperature  
Mean Temperature 36 °F 43 °F  
Max Temperature 43 °F 55 °F 79 °F (1958)
Min Temperature 29 °F 31 °F 6 °F (1969)
Degree Days  
Heating Degree Days 29 22  
Month to date heating degree days 329 278  
Since 1 July heating degree days 648 764  
Cooling Degree Days 0 0  
Month to date cooling degree days 0 0  
Year to date cooling degree days 187 177  
Moisture  
Dew Point 33 °F    
Average Humidity 85    
Maximum Humidity 100    
Minimum Humidity 69    
Precipitation  
Precipitation 0.49 in 0.05 in 1.25 in (1942)
Month to date precipitation 3.45 0.83  
Year to date precipitation 20.70 17.32  
Sea Level Pressure  
Sea Level Pressure 29.91 in    
Wind  
Wind Speed 8 mph (North)    
Max Wind Speed 18 mph    
Max Gust Speed 30 mph    
Visibility 7 miles    
Events Rain , Snow    
T = Trace of Precipitation, MM = Missing Value Source: NWS Daily Summary

Daily Weather History Graph

Daily Weather History Graph

Search for Another Location

Airport or City:

Trip Planner

Search our weather history database for the weather conditions in past years. The results will help you decide how hot, cold, wet, or windy it might be!

Date:

Astronomy

Oct. 14, 2013 Rise Set
Actual Time 7:07 AM MDT 6:12 PM MDT
Civil Twilight 6:38 AM MDT 6:41 PM MDT
Nautical Twilight 6:05 AM MDT 7:14 PM MDT
Astronomical Twilight 5:32 AM MDT 7:47 PM MDT
Moon 3:50 PM MDT (10/14) 2:18 AM MDT (10/14)
Length of Visible Light 12h 02m
Length of Day
11h 04m
Waxing Gibbous, 80% of the Moon is Illuminated
Oct 14
Waxing Gibbous
Oct 18
Full
Oct 26
Last Quarter
Nov 3
New
Nov 9
First Quarter

Hourly Weather History & Observations

Time (MDT) Temp. Windchill Dew Point Humidity Pressure Visibility Wind Dir Wind Speed Gust Speed Precip Events Conditions
12:48 AM 44.6 °F 42.2 °F 37.4 °F 76% 29.98 in 10.0 mi ESE 4.6 mph - 0.01 in   Overcast
12:53 AM 43.0 °F 41.3 °F 37.9 °F 82% 29.91 in 10.0 mi ESE 3.5 mph - 0.01 in   Overcast
1:14 AM 42.8 °F 38.6 °F 37.4 °F 81% 29.97 in 10.0 mi ESE 6.9 mph - 0.00 in Rain Light Rain
1:48 AM 42.8 °F - 39.2 °F 87% 29.95 in 10.0 mi Calm Calm - 0.01 in Rain Light Rain
1:53 AM 42.1 °F 40.2 °F 39.0 °F 89% 29.88 in 10.0 mi NNE 3.5 mph - 0.01 in Rain Light Rain
2:17 AM 41.0 °F 38.0 °F 39.2 °F 93% 29.96 in 10.0 mi WNW 4.6 mph - 0.00 in Rain Light Rain
2:53 AM 41.0 °F - 39.9 °F 96% 29.88 in 10.0 mi Calm Calm - 0.03 in Rain Light Rain
3:24 AM 41.0 °F - 39.2 °F 93% 29.92 in 3.0 mi Calm Calm - 0.03 in Rain Rain
3:32 AM 42.8 °F 41.1 °F 41.0 °F 93% 29.91 in 2.5 mi NE 3.5 mph - 0.07 in Rain Heavy Rain
3:53 AM 42.1 °F - 41.0 °F 96% 29.85 in 3.0 mi Calm Calm - 0.14 in Rain Rain
4:06 AM 42.8 °F 41.1 °F 41.0 °F 93% 29.90 in 2.5 mi North 3.5 mph - 0.05 in Rain Rain
4:14 AM 42.8 °F 40.1 °F 41.0 °F 93% 29.89 in 3.0 mi North 4.6 mph - 0.06 in Rain Light Rain
4:53 AM 42.1 °F 39.2 °F 42.1 °F 100% 29.82 in 2.5 mi ENE 4.6 mph - 0.09 in Rain Light Rain
5:09 AM 42.8 °F 40.1 °F 41.0 °F 93% 29.89 in 4.0 mi NE 4.6 mph - 0.01 in Rain Light Rain
5:45 AM 42.8 °F 38.6 °F 41.0 °F 93% 29.88 in 4.0 mi North 6.9 mph - 0.01 in Rain Light Rain
5:53 AM 41.0 °F 38.0 °F 39.9 °F 96% 29.84 in 4.0 mi North 4.6 mph - 0.02 in Rain Light Rain
6:08 AM 41.0 °F 36.4 °F 39.2 °F 93% 29.88 in 4.0 mi North 6.9 mph - 0.01 in Rain Light Rain
6:33 AM 41.0 °F 36.4 °F 39.2 °F 93% 29.86 in 9.0 mi North 6.9 mph - 0.01 in Rain Light Rain
6:53 AM 41.0 °F 35.8 °F 39.0 °F 93% 29.82 in 10.0 mi NNW 8.1 mph - 0.02 in Rain Light Rain
7:14 AM 41.0 °F 35.8 °F 39.2 °F 93% 29.87 in 10.0 mi North 8.1 mph - 0.00 in Rain Light Rain
7:53 AM 39.9 °F 36.7 °F 39.0 °F 97% 29.84 in 5.0 mi NNE 4.6 mph - 0.07 in Rain Rain
8:09 AM 39.2 °F 33.6 °F 37.4 °F 93% 29.87 in 5.0 mi NNE 8.1 mph 18.4 mph 0.03 in Rain Rain
8:53 AM 39.9 °F 33.9 °F 37.0 °F 89% 29.83 in 9.0 mi North 9.2 mph - 0.07 in Rain Light Rain
9:32 AM 39.2 °F 33.6 °F 37.4 °F 93% 29.86 in 10.0 mi North 8.1 mph - 0.01 in Rain Light Rain
9:53 AM 39.9 °F 33.4 °F 37.0 °F 89% 29.81 in 10.0 mi North 10.4 mph - 0.01 in   Overcast
10:53 AM 39.0 °F 30.3 °F 36.0 °F 89% 29.81 in 10.0 mi North 16.1 mph 21.9 mph N/A   Overcast
11:53 AM 39.0 °F 34.0 °F 36.0 °F 89% 29.81 in 10.0 mi North 6.9 mph - N/A   Overcast
12:34 PM 37.4 °F 30.8 °F 33.8 °F 87% 29.85 in 10.0 mi North 9.2 mph - 0.00 in Rain Light Rain
12:53 PM 37.0 °F 31.6 °F 32.0 °F 82% 29.83 in 10.0 mi North 6.9 mph 17.3 mph 0.00 in Rain Light Rain
1:30 PM 33.8 °F 27.0 °F 30.2 °F 87% 29.85 in 2.0 mi North 8.1 mph 17.3 mph 0.01 in Snow Light Snow
1:42 PM 33.8 °F 25.8 °F 30.2 °F 87% 29.85 in 1.8 mi NNW 10.4 mph - 0.01 in Snow Light Snow
1:53 PM 34.0 °F 28.8 °F 30.9 °F 89% 29.86 in 1.2 mi Variable 5.8 mph 17.3 mph 0.01 in Snow Light Snow
2:46 PM 33.8 °F 27.7 °F 30.2 °F 87% 29.87 in 2.5 mi Variable 6.9 mph 18.4 mph 0.02 in Snow Light Snow
2:51 PM 33.8 °F 25.3 °F 30.2 °F 87% 29.87 in 3.0 mi NNW 11.5 mph 19.6 mph 0.02 in Snow Light Snow
2:53 PM 34.0 °F 27.2 °F 30.0 °F 85% 29.88 in 4.0 mi North 8.1 mph 19.6 mph 0.02 in Snow Light Snow
3:53 PM 34.0 °F 28.0 °F 28.0 °F 79% 29.91 in 10.0 mi North 6.9 mph - 0.00 in   Overcast
4:53 PM 32.0 °F 23.6 °F 27.0 °F 82% 29.94 in 4.0 mi NNW 10.4 mph 18.4 mph 0.00 in Snow Light Snow
5:06 PM 32.0 °F 23.0 °F 26.6 °F 80% 29.94 in 2.0 mi NW 11.5 mph 21.9 mph 0.00 in Snow Light Snow
5:12 PM 32.0 °F 24.2 °F 26.6 °F 80% 29.94 in 1.8 mi NNW 9.2 mph 21.9 mph 0.00 in Snow Light Snow
5:32 PM 32.0 °F 24.2 °F 26.6 °F 80% 29.94 in 3.0 mi NW 9.2 mph 20.7 mph 0.00 in Snow Light Snow
5:50 PM 32.0 °F 23.0 °F 24.8 °F 75% 29.95 in 8.0 mi NNW 11.5 mph 21.9 mph 0.00 in Snow Light Snow
5:53 PM 32.0 °F 24.8 °F 25.0 °F 75% 29.96 in 9.0 mi NW 8.1 mph 21.9 mph 0.00 in Snow Light Snow
6:53 PM 32.0 °F 22.5 °F 23.0 °F 69% 29.99 in 10.0 mi NNW 12.7 mph 20.7 mph 0.00 in   Mostly Cloudy
7:53 PM 30.9 °F 23.5 °F 23.0 °F 72% 30.02 in 10.0 mi NNW 8.1 mph 21.9 mph N/A   Mostly Cloudy
8:53 PM 30.0 °F 20.0 °F 21.9 °F 72% 30.05 in 10.0 mi NNW 12.7 mph 21.9 mph N/A   Mostly Cloudy
9:53 PM 30.0 °F 19.1 °F 21.0 °F 69% 30.07 in 10.0 mi NNW 15.0 mph 25.3 mph N/A   Scattered Clouds
10:53 PM 30.0 °F 20.5 °F 21.0 °F 69% 30.09 in 10.0 mi NNW 11.5 mph 21.9 mph N/A   Clear
11:43 PM 30.2 °F 22.6 °F 21.2 °F 69% 30.06 in 10.0 mi NNW 8.1 mph 21.9 mph N/A   Mostly Cloudy
11:53 PM 30.0 °F 22.4 °F 21.9 °F 72% 30.11 in 10.0 mi NNW 8.1 mph - N/A   Overcast